This is the latest recevied weather packets stored in our database for station/object SQ8AQX-13. If no packets are shown the sender has not sent any weather packets the latest 10 day(s).
| Time | Temp. | Humidity | Pressure | Rain* | Wind** | Luminosity | Snow |
|---|---|---|---|---|---|---|---|
| 1777297914 | 15° C | 23% | 1022.8 hPa | - | - | - | - |
| 1777296114 | 15.56° C | 24% | 1023.1 hPa | - | - | - | - |
| 1777295514 | 15.56° C | 22% | 1023.1 hPa | - | - | - | - |
| 1777294914 | 15.56° C | 22% | 1023.1 hPa | - | - | - | - |
| 1777293113 | 15° C | 23% | 1023.3 hPa | - | - | - | - |
| 1777292513 | 15° C | 26% | 1023.3 hPa | - | - | - | - |
| 1777291913 | 15° C | 25% | 1023.4 hPa | - | - | - | - |
| 1777290113 | 14.44° C | 25% | 1023.6 hPa | - | - | - | - |
| 1777289513 | 14.44° C | 25% | 1023.8 hPa | - | - | - | - |
| 1777288913 | 14.44° C | 25% | 1023.8 hPa | - | - | - | - |
| 1777287112 | 13.89° C | 26% | 1023.9 hPa | - | - | - | - |
| 1777286512 | 13.33° C | 26% | 1024 hPa | - | - | - | - |
| 1777285912 | 14.44° C | 27% | 1024 hPa | - | - | - | - |
| 1777284111 | 13.33° C | 27% | 1024.3 hPa | - | - | - | - |
| 1777283511 | 13.33° C | 33% | 1024.4 hPa | - | - | - | - |
| 1777282911 | 12.78° C | 32% | 1024.6 hPa | - | - | - | - |
| 1777281111 | 12.22° C | 33% | 1024.9 hPa | - | - | - | - |
| 1777280511 | 11.67° C | 35% | 1025.1 hPa | - | - | - | - |
| 1777279911 | 11.67° C | 35% | 1025.1 hPa | - | - | - | - |
| 1777278110 | 10.56° C | 36% | 1025.3 hPa | - | - | - | - |
| 1777277510 | 10° C | 39% | 1025.4 hPa | - | - | - | - |
| 1777276910 | 9.44° C | 40% | 1025.4 hPa | - | - | - | - |
| 1777274509 | 7.78° C | 47% | 1025.7 hPa | - | - | - | - |
| 1777273909 | 7.78° C | 47% | 1025.8 hPa | - | - | - | - |
| 1777273309 | 7.22° C | 49% | 1025.8 hPa | - | - | - | - |
* Rain since midnight (hover to see other rain measurements)
** Current wind speed in m/s (hover to see current wind gust speed)